Weather Roundup
Issued by NWS Springfield, MO

Home | Current Version | Previous Version | Text Only | Print | Product List | Glossary On
Versions: 1 2 3 4 5 6 7 8 9 10 11 12 13 14 15 16 17 18 19 20 21 22 23 24 25 26 27 28 29 30 31 32 33 34 35 36 37 38 39 40 41 42 43 44 45 46 47 48 49 50
000
NZUS99 KSGF 240507
HRRSGF

HOURLY WEATHER
NATIONAL WEATHER SERVICE SPRINGFIELD MO
1200 AM CDT THU JUL 24 2014

......SGF CWA......

CITY           SKY/WX    TMP DP  RH WIND       PRES   REMARKS
SPRINGFIELD    CLEAR     74  67  78 NE8       30.09S
JOPLIN         CLEAR     71  67  87 N6        30.09S
WEST PLAINS    CLEAR     68  66  93 CALM      30.09S
ROLLA          PTCLDY    69  62  78 NE9       30.11S
OSAGE BEACH    CLEAR     72  63  73 NE6       30.11S
BRANSON        FOG       72  72 100 CALM      30.09S VSB 1/4

......SURROUNDING SGF CWA......

CITY           SKY/WX    TMP DP  RH WIND       PRES   REMARKS
CHANUTE        CLEAR     74  66  76 E6        30.11S
PARSONS        CLEAR     70  66  87 N5        30.11F
COFFEYVILLE    CLEAR     72  68  87 NE5       30.08F
EMPORIA        CLEAR     72  65  78 NE3       30.13S
GROVE OK       CLEAR     73  70  88 CALM      30.10S
ROGERS AR      CLEAR     70  66  87 W5        30.11S
SILOAM SPRINGS CLEAR     68  61  77 NW5       30.11S
NEAR YELLVILLE MOCLDY    70  68  94 CALM      30.06S

......KANSAS AND MISSOURI......

CITY           SKY/WX    TMP DP  RH WIND       PRES   REMARKS
KANSAS CTY INT CLEAR     73  62  68 E8        30.15R
DOWNTOWN KC    CLEAR     74  62  66 NE7       30.13S
COLUMBIA       CLEAR     67  60  78 NE7       30.14R
SEDALIA        CLEAR     71  63  75 NE6       30.14R
ST JOSEPH      CLEAR     72  62  71 E6        30.15R
ST LOUIS       CLEAR     71  58  63 NE8       30.12S
SPIRIT OF STL  CLEAR     67  60  78 E5        30.11R
KIRKSVILLE     CLEAR     63  57  81 NE3       30.16F
WICHITA        CLEAR     76  65  68 SE7       30.13S
TOPEKA         CLEAR     72  66  81 CALM      30.14S
OLATHE         CLEAR     72  62  71 E6        30.14S

......TENNESSEE......

CITY           SKY/WX    TMP DP  RH WIND       PRES   REMARKS
MEMPHIS        PTCLDY    72  67  84 N3        30.02F
NASHVILLE      MOCLDY    77  69  76 CALM      30.01F

......ARKANSAS.......

CITY           SKY/WX    TMP DP  RH WIND       PRES   REMARKS
FAYETTEVILLE   CLEAR     66  66 100 CALM      30.09S
FT SMITH       CLEAR     72  69  90 NW3       30.04F
LITTLE ROCK    MOCLDY    72  68  87 NW7       30.00S

......OKLAHOMA.......

CITY           SKY/WX    TMP DP  RH WIND       PRES   REMARKS
TULSA          MOCLDY    73  68  84 W3        30.07F
PONCA CITY     PTCLDY    72  70  93 CALM      30.11S
MCALESTER      PTCLDY    70  69  97 W3        30.07S
OKLAHOMA CITY  CLOUDY    74  66  76 SE6       30.11F

......IOWA............

CITY           SKY/WX    TMP DP  RH WIND       PRES   REMARKS
DES MOINES     CLEAR     71  58  63 S3        30.16S
QUAD CITIES    CLEAR     61  57  87 CALM      30.15R

......ILLINOIS........

CITY           SKY/WX    TMP DP  RH WIND       PRES   REMARKS
QUINCY         CLEAR     64  57  78 NE5       30.14S
CHICAGO        CLEAR     60  49  66 N6        30.15R




USA.gov is the U.S. government's official web portal to all federal, state and local government web resources and services.